DW4070 Weather Reports


Display with metric or nautical units.
time (UTC)temp
F
wind
direction
speed
MPH
gust
MPH
rain 1hr
in
rain 24hr
in
rain mn
in
humidity
%
barometer
mb
20260502220050 58 28 0.0 2.0 0.00 0.05 0.05 46 1011.2
20260502214548 58 78 0.0 2.0 0.00 0.05 0.05 46 1011.3
20260502213101 58 128 0.0 2.0 0.00 0.05 0.05 48 1011.3
20260502211547 58 55 0.0 2.0 0.00 0.05 0.05 51 1011.3
20260502210046 58 20 1.0 5.0 0.00 0.05 0.05 48 1011.2
20260502204546 58 9 0.0 3.0 0.00 0.05 0.05 49 1011.2
20260502203045 58 286 0.0 3.0 0.00 0.05 0.05 48 1011.2
20260502201542 59 202 1.0 2.0 0.00 0.05 0.05 54 1011.5
20260502194553 58 284 0.0 2.0 0.00 0.05 0.05 53 1011.9
20260502193035 58 284 0.0 0.0 0.00 0.05 0.05 56 1012.2
20260502191534 58 336 1.0 3.0 0.00 0.05 0.05 56 1012.4
20260502190033 57 40 1.0 5.0 0.00 0.05 0.05 59 1012.5
20260502184531 56 138 1.0 3.0 0.00 0.05 0.05 65 1012.6
20260502183036 55 348 0.0 2.0 0.00 0.05 0.05 66 1012.9
20260502181628 55 32 0.0 3.0 0.00 0.05 0.05 66 1012.8
20260502163022 56 263 0.0 2.0 0.00 0.05 0.05 66 1013.0
20260502161521 56 236 0.0 6.0 0.00 0.05 0.05 65 1013.1
20260502151514 54 269 0.0 0.0 0.00 0.05 0.05 72 1013.4
20260502130105 50 269 0.0 0.0 0.00 0.05 0.05 91 1014.0
20260502123052 49 269 0.0 0.0 0.00 0.05 0.05 93 1013.9
20260502121600 49 269 0.0 0.0 0.00 0.05 0.05 94 1013.7
20260502120110 48 269 0.0 0.0 0.00 0.05 0.05 94 1013.8
20260502114554 48 269 0.0 0.0 0.00 0.05 0.05 94 1013.9
20260502113108 48 269 0.0 0.0 0.01 0.05 0.05 94 1013.9
20260502111548 48 269 0.0 0.0 0.03 0.05 0.05 94 1013.6
20260502110047 48 269 0.0 0.0 0.05 0.05 0.05 94 1013.4
20260502104543 47 269 0.0 0.0 0.05 0.05 0.05 94 1013.2
20260502103106 47 269 0.0 0.0 0.03 0.03 0.03 94 1013.5
20260502101549 47 269 0.0 0.0 0.02 0.02 0.02 93 1013.6
20260502071534 46 269 0.0 0.0 0.00 0.00 0.00 90 1013.1
20260502070027 46 269 0.0 0.0 0.00 0.00 0.00 89 1013.2
20260502064526 46 269 0.0 0.0 0.00 0.00 0.00 89 1013.1
20260502063025 46 269 0.0 0.0 0.00 0.00 0.00 88 1013.2
20260502061523 47 269 0.0 0.0 0.00 0.00 0.00 89 1013.3
20260502060022 47 269 0.0 0.0 0.00 0.00 0.00 88 1013.4
20260502054521 47 269 0.0 0.0 0.00 0.00 0.00 88 1013.4
20260502053022 47 269 0.0 0.0 0.00 0.00 0.00 88 1013.3
20260502051520 46 269 0.0 0.0 0.00 0.00 0.00 88 1013.3
20260502050017 46 269 0.0 0.0 0.00 0.00 0.00 87 1013.5
20260502044518 46 269 0.0 0.0 0.00 0.00 0.00 87 1013.6
20260502043018 46 269 0.0 0.0 0.00 0.00 0.00 88 1013.8
20260502041511 46 269 0.0 0.0 0.00 0.00 0.00 88 1013.6
20260502040010 46 269 0.0 0.0 0.00 0.00 0.00 86 1013.6
20260502034510 46 269 0.0 0.0 0.00 0.00 0.00 86 1013.5
20260502033010 46 269 0.0 0.0 0.00 0.00 0.00 85 1013.6
20260502031509 46 269 0.0 0.0 0.00 0.00 0.00 84 1013.9
20260502030009 47 269 0.0 0.0 0.00 0.00 0.00 82 1013.9
20260502024508 47 269 0.0 0.0 0.00 0.00 0.00 80 1014.0
20260502023007 48 269 0.0 0.0 0.00 0.00 0.00 79 1013.8
20260502021506 49 269 0.0 0.0 0.00 0.00 0.00 77 1013.9
20260502020005 50 269 0.0 0.0 0.00 0.00 0.00 76 1013.9
20260502014504 51 269 0.0 0.0 0.00 0.00 0.00 73 1013.9
20260502013004 52 269 0.0 0.0 0.00 0.00 0.00 71 1013.7
20260502011503 53 269 0.0 0.0 0.00 0.00 0.00 69 1013.7
20260502010003 53 269 0.0 0.0 0.00 0.00 0.00 67 1013.6
20260502004502 54 269 0.0 2.0 0.00 0.00 0.00 65 1013.5
20260502003001 54 269 0.0 2.0 0.00 0.00 0.00 64 1013.3
20260502001503 54 269 0.0 3.0 0.00 0.00 0.00 64 1013.1
20260502000001 54 269 0.0 3.0 0.00 0.00 0.00 66 1012.9
20260501234601 54 269 0.0 3.0 0.00 0.00 0.00 63 1012.8
20260501233103 55 269 1.0 3.0 0.00 0.00 0.00 61 1012.5
20260501231559 55 262 2.0 5.0 0.00 0.00 0.00 60 1012.5
20260501224559 56 213 2.0 6.0 0.00 0.00 0.00 55 1012.1
20260501223111 57 279 1.0 7.0 0.00 0.00 0.00 53 1012.1
20260501221557 59 233 2.0 8.0 0.00 0.00 0.00 51 1012.1